Location: New Orleans
(29.9540°N, 90.0750°W)
Time: 14:50:52
(UTC-05:00)

ISS - Visible Passes

Search period start: 18 July 2018 00:00
Search period end: 28 July 2018 00:00
Orbit: 402 x 408 km, 51.6° (Epoch: 19 July)

Date Brightness Start Highest point End Pass type
(mag) Time Alt. Az. Time Alt. Az. Time Alt. Az.
18 Jul -0.2 04:50:49 10° NNE 04:51:43 11° NNE 04:52:38 10° NE visible
18 Jul -3.9 21:24:29 10° SSW 21:27:41 62° SE 21:30:43 11° NE visible
18 Jul -0.3 23:03:26 10° NW 23:07:07 - N 23:04:26 11° NW visible
19 Jul -2.8 05:33:13 10° NNW 05:36:26 50° NE 05:39:38 10° ESE visible
19 Jul -2.8 20:32:56 10° S 20:35:42 25° SE 20:38:28 10° ENE visible
19 Jul -1.0 22:09:40 10° W 22:12:09 20° NW 22:14:38 10° N visible
20 Jul -1.3 04:41:30 10° NNW 04:44:15 24° NE 04:47:00 10° E visible
20 Jul -2.3 21:16:51 10° WSW 21:19:55 38° NW 21:23:01 10° NNE visible
21 Jul -0.4 03:50:16 10° N 03:51:58 13° NE 03:53:40 10° ENE visible
21 Jul -3.6 05:25:27 10° NW 05:28:37 46° SW 05:31:47 10° SSE visible
21 Jul -3.9 20:24:33 10° SW 20:27:48 88° SE 20:31:04 10° NE visible
22 Jul -3.6 04:33:15 10° NW 04:36:33 70° NE 04:39:49 10° SE visible
22 Jul -0.6 21:10:12 10° WNW 21:12:18 16° NW 21:14:23 10° N visible
23 Jul -1.6 05:22:12 12° SSW 05:22:12 12° SSW 05:22:37 10° SSW visible
